Time,TemperatureF,DewpointF,PressureIn,WindDirection,WindDirectionDegrees,WindSpeedMPH,WindSpeedGustMPH,Humidity,HourlyPrecipIn,Conditions,Clouds,dailyrainin,SoftwareType,DateUTC
2013-04-30 00:06:00,71.3,52.2,29.58,SSE,166,6.0,13.0,51,0.00,CLR,,0.00,WeatherDisplay:10.37,2013-04-30 05:06:00,
2013-04-30 00:11:00,71.1,52.0,29.58,South,178,6.0,20.0,51,0.00,CLR,,0.00,WeatherDisplay:10.37,2013-04-30 05:11:00,
2013-04-30 00:16:00,71.0,52.5,29.58,South,173,2.0,15.0,52,0.00,CLR,,0.00,WeatherDisplay:10.37,2013-04-30 05:16:00,
2013-04-30 00:21:00,70.7,52.2,29.58,SSE,156,7.0,15.0,52,0.00,CLR,,0.00,WeatherDisplay:10.37,2013-04-30 05:21:00,
2013-04-30 00:26:00,70.4,52.4,29.58,SSE,158,7.0,19.0,53,0.00,CLR,,0.00,WeatherDisplay:10.37,2013-04-30 05:26:00,
2013-04-30 00:31:00,70.3,52.4,29.59,SSE,162,7.0,18.0,53,0.00,CLR,,0.00,WeatherDisplay:10.37,2013-04-30 05:31:00,
2013-04-30 00:36:00,70.1,52.2,29.59,SSE,168,6.0,21.0,53,0.00,CLR,,0.00,WeatherDisplay:10.37,2013-04-30 05:36:00,
2013-04-30 00:45:00,69.8,52.4,29.59,South,181,6.0,16.0,54,0.00,CLR,,0.00,WeatherDisplay:10.37,2013-04-30 05:45:00,
2013-04-30 00:51:00,69.4,52.0,29.59,South,184,8.0,16.0,54,0.00,CLR,,0.00,WeatherDisplay:10.37,2013-04-30 05:51:00,
2013-04-30 00:56:00,69.3,52.4,29.59,South,183,3.0,19.0,55,0.00,CLR,,0.00,WeatherDisplay:10.37,2013-04-30 05:56:00,
2013-04-30 01:06:00,68.9,52.1,29.59,South,176,2.0,14.0,55,0.00,CLR,,0.00,WeatherDisplay:10.37,2013-04-30 06:06:00,
2013-04-30 01:11:00,68.6,52.3,29.60,South,175,6.0,12.0,56,0.00,CLR,,0.00,WeatherDisplay:10.37,2013-04-30 06:11:00,
2013-04-30 01:16:00,68.4,52.1,29.60,South,184,7.0,16.0,56,0.00,CLR,,0.00,WeatherDisplay:10.37,2013-04-30 06:16:00,
2013-04-30 01:21:00,68.2,52.4,29.60,South,183,5.0,12.0,57,0.00,CLR,,0.00,WeatherDisplay:10.37,2013-04-30 06:21:00,
2013-04-30 01:26:00,67.9,52.1,29.60,SSE,165,7.0,14.0,57,0.00,CLR,,0.00,WeatherDisplay:10.37,2013-04-30 06:26:00,
2013-04-30 01:31:00,67.6,51.8,29.60,SSE,162,6.0,15.0,57,0.00,CLR,,0.00,WeatherDisplay:10.37,2013-04-30 06:31:00,
2013-04-30 01:41:00,67.3,52.0,29.61,South,177,5.0,13.0,58,0.00,CLR,,0.00,WeatherDisplay:10.37,2013-04-30 06:41:00,
2013-04-30 01:46:00,67.1,51.8,29.61,South,182,9.0,20.0,58,0.00,CLR,,0.00,WeatherDisplay:10.37,2013-04-30 06:46:00,
2013-04-30 01:51:00,66.9,51.6,29.61,South,185,3.0,13.0,58,0.00,CLR,,0.00,WeatherDisplay:10.37,2013-04-30 06:51:00,
2013-04-30 01:56:00,66.8,52.0,29.61,South,185,2.0,16.0,59,0.00,CLR,,0.00,WeatherDisplay:10.37,2013-04-30 06:56:00,
2013-04-30 02:01:00,66.8,52.0,29.61,South,172,2.0,14.0,59,0.00,CLR,,0.00,WeatherDisplay:10.37,2013-04-30 07:01:00,
2013-04-30 02:06:00,66.6,51.8,29.60,South,174,1.0,14.0,59,0.00,CLR,,0.00,WeatherDisplay:10.37,2013-04-30 07:06:00,
2013-04-30 02:11:00,66.4,52.1,29.60,South,171,5.0,18.0,60,0.00,CLR,,0.00,WeatherDisplay:10.37,2013-04-30 07:11:00,
2013-04-30 02:16:00,66.3,52.0,29.60,SSE,168,2.0,17.0,60,0.00,CLR,,0.00,WeatherDisplay:10.37,2013-04-30 07:16:00,
2013-04-30 02:21:00,66.2,52.3,29.60,South,177,6.0,14.0,61,0.00,CLR,,0.00,WeatherDisplay:10.37,2013-04-30 07:21:00,
2013-04-30 02:31:00,65.9,52.5,29.60,South,191,2.0,12.0,62,0.00,CLR,,0.00,WeatherDisplay:10.37,2013-04-30 07:31:00,
2013-04-30 02:36:00,65.9,52.5,29.60,South,173,5.0,13.0,62,0.00,CLR,,0.00,WeatherDisplay:10.37,2013-04-30 07:36:00,
2013-04-30 02:41:00,65.8,52.9,29.60,South,178,7.0,15.0,63,0.00,CLR,,0.00,WeatherDisplay:10.37,2013-04-30 07:41:00,
2013-04-30 02:51:00,65.3,52.8,29.61,South,176,1.0,8.0,64,0.00,CLR,,0.00,WeatherDisplay:10.37,2013-04-30 07:51:00,
2013-04-30 02:56:00,65.1,53.0,29.60,South,171,5.0,13.0,65,0.00,CLR,,0.00,WeatherDisplay:10.37,2013-04-30 07:56:00,
2013-04-30 03:01:00,65.0,53.4,29.60,South,182,1.0,13.0,66,0.00,CLR,,0.00,WeatherDisplay:10.37,2013-04-30 08:01:00,
2013-04-30 03:11:00,64.7,53.5,29.60,SSE,162,2.0,6.0,67,0.00,CLR,,0.00,WeatherDisplay:10.37,2013-04-30 08:11:00,
2013-04-30 03:16:00,64.5,53.3,29.60,South,173,3.0,13.0,67,0.00,CLR,,0.00,WeatherDisplay:10.37,2013-04-30 08:16:00,
2013-04-30 03:21:00,64.5,53.7,29.60,South,173,3.0,15.0,68,0.00,CLR,,0.00,WeatherDisplay:10.37,2013-04-30 08:21:00,
2013-04-30 03:26:00,64.3,53.5,29.60,South,182,6.0,16.0,68,0.00,CLR,,0.00,WeatherDisplay:10.37,2013-04-30 08:26:00,
2013-04-30 03:31:00,64.2,53.8,29.60,South,171,3.0,13.0,69,0.00,CLR,,0.00,WeatherDisplay:10.37,2013-04-30 08:31:00,
2013-04-30 03:41:00,63.8,53.8,29.61,SSE,161,3.0,12.0,70,0.00,CLR,,0.00,WeatherDisplay:10.37,2013-04-30 08:41:00,
2013-04-30 03:51:00,63.5,53.9,29.61,SSE,166,0.0,6.0,71,0.00,CLR,,0.00,WeatherDisplay:10.37,2013-04-30 08:51:00,
2013-04-30 03:56:00,63.4,53.8,29.62,SSE,166,2.0,9.0,71,0.00,CLR,,0.00,WeatherDisplay:10.37,2013-04-30 08:56:00,
2013-04-30 04:01:00,63.2,54.0,29.61,SSE,161,2.0,8.0,72,0.00,CLR,,0.00,WeatherDisplay:10.37,2013-04-30 09:01:00,
2013-04-30 04:11:00,63.0,53.8,29.61,South,170,0.0,13.0,72,0.00,CLR,,0.00,WeatherDisplay:10.37,2013-04-30 09:11:00,
2013-04-30 04:16:00,62.9,54.2,29.61,SSE,163,1.0,13.0,73,0.00,CLR,,0.00,WeatherDisplay:10.37,2013-04-30 09:16:00,
2013-04-30 04:21:00,62.8,54.0,29.61,SSE,159,5.0,13.0,73,0.00,CLR,,0.00,WeatherDisplay:10.37,2013-04-30 09:21:00,
2013-04-30 04:31:00,62.6,53.8,29.61,SSE,164,3.0,9.0,73,0.00,CLR,,0.00,WeatherDisplay:10.37,2013-04-30 09:31:00,
2013-04-30 04:36:00,62.6,54.2,29.61,SSE,165,2.0,11.0,74,0.00,CLR,,0.00,WeatherDisplay:10.37,2013-04-30 09:36:00,
2013-04-30 04:46:00,62.4,54.0,29.61,SSE,166,2.0,12.0,74,0.00,CLR,,0.00,WeatherDisplay:10.37,2013-04-30 09:46:00,
2013-04-30 04:56:00,62.6,54.2,29.61,South,177,1.0,12.0,74,0.00,CLR,,0.00,WeatherDisplay:10.37,2013-04-30 09:56:00,
2013-04-30 05:01:00,62.6,54.2,29.62,South,171,2.0,12.0,74,0.00,CLR,,0.00,WeatherDisplay:10.37,2013-04-30 10:01:00,
2013-04-30 05:11:00,62.4,54.0,29.62,South,174,1.0,6.0,74,0.00,CLR,,0.00,WeatherDisplay:10.37,2013-04-30 10:11:00,
2013-04-30 05:16:00,62.4,54.4,29.61,SSE,163,2.0,13.0,75,0.00,CLR,,0.00,WeatherDisplay:10.37,2013-04-30 10:16:00,
2013-04-30 05:26:00,62.4,54.4,29.61,South,178,2.0,12.0,75,0.00,CLR,,0.00,WeatherDisplay:10.37,2013-04-30 10:26:00,
2013-04-30 05:31:00,62.4,54.4,29.61,SSE,163,1.0,14.0,75,0.00,CLR,,0.00,WeatherDisplay:10.37,2013-04-30 10:31:00,
2013-04-30 05:36:00,62.4,54.4,29.62,SSE,152,1.0,13.0,75,0.00,CLR,,0.00,WeatherDisplay:10.37,2013-04-30 10:36:00,
2013-04-30 05:41:00,62.6,54.9,29.62,South,172,2.0,16.0,76,0.00,CLR,,0.00,WeatherDisplay:10.37,2013-04-30 10:41:00,
2013-04-30 05:51:00,62.7,54.7,29.62,SSE,158,2.0,13.0,75,0.00,CLR,,0.00,WeatherDisplay:10.37,2013-04-30 10:51:00,
2013-04-30 05:56:00,62.9,54.9,29.62,SSE,161,1.0,15.0,75,0.00,CLR,,0.00,WeatherDisplay:10.37,2013-04-30 10:56:00,
2013-04-30 06:01:00,62.9,54.9,29.62,SSE,160,2.0,18.0,75,0.00,CLR,,0.00,WeatherDisplay:10.37,2013-04-30 11:01:00,
2013-04-30 06:06:00,62.9,55.2,29.63,SSE,150,1.0,17.0,76,0.00,CLR,,0.00,WeatherDisplay:10.37,2013-04-30 11:06:00,
2013-04-30 06:11:00,62.7,55.0,29.63,SSE,148,3.0,16.0,76,0.00,CLR,,0.00,WeatherDisplay:10.37,2013-04-30 11:11:00,
2013-04-30 06:21:00,62.7,55.0,29.63,SSE,167,5.0,18.0,76,0.00,CLR,,0.00,WeatherDisplay:10.37,2013-04-30 11:21:00,
2013-04-30 06:26:00,62.7,55.0,29.63,SSE,160,1.0,14.0,76,0.00,CLR,,0.00,WeatherDisplay:10.37,2013-04-30 11:26:00,
2013-04-30 06:36:00,62.6,55.3,29.63,SSE,167,1.0,16.0,77,0.00,CLR,,0.00,WeatherDisplay:10.37,2013-04-30 11:36:00,
2013-04-30 06:41:00,62.6,55.3,29.64,South,178,6.0,13.0,77,0.00,CLR,,0.00,WeatherDisplay:10.37,2013-04-30 11:41:00,
2013-04-30 06:46:00,62.7,55.3,29.64,South,180,1.0,16.0,77,0.00,CLR,,0.00,WeatherDisplay:10.37,2013-04-30 11:46:00,
2013-04-30 06:51:00,62.7,55.4,29.64,South,173,1.0,16.0,77,0.00,CLR,,0.00,WeatherDisplay:10.37,2013-04-30 11:51:00,
2013-04-30 06:56:00,62.6,55.3,29.64,South,180,6.0,18.0,77,0.00,CLR,,0.00,WeatherDisplay:10.37,2013-04-30 11:56:00,
2013-04-30 07:01:00,62.7,55.4,29.64,SSE,166,2.0,14.0,77,0.00,CLR,,0.00,WeatherDisplay:10.37,2013-04-30 12:01:00,
2013-04-30 07:06:00,62.7,55.4,29.65,South,169,1.0,16.0,77,0.00,CLR,,0.00,WeatherDisplay:10.37,2013-04-30 12:06:00,
2013-04-30 07:11:00,62.7,55.4,29.65,South,178,5.0,16.0,77,0.00,CLR,,0.00,WeatherDisplay:10.37,2013-04-30 12:11:00,
2013-04-30 07:16:00,62.8,55.5,29.65,SSE,166,5.0,16.0,77,0.00,CLR,,0.00,WeatherDisplay:10.37,2013-04-30 12:16:00,
2013-04-30 07:21:00,62.9,55.6,29.65,SSE,157,8.0,15.0,77,0.00,CLR,,0.00,WeatherDisplay:10.37,2013-04-30 12:21:00,
2013-04-30 07:31:00,63.2,55.9,29.65,SSE,158,2.0,15.0,77,0.00,CLR,,0.00,WeatherDisplay:10.37,2013-04-30 12:31:00,
2013-04-30 07:36:00,63.4,56.1,29.65,SSE,164,7.0,20.0,77,0.00,CLR,,0.00,WeatherDisplay:10.37,2013-04-30 12:36:00,
2013-04-30 07:41:00,63.5,56.2,29.64,South,171,8.0,14.0,77,0.00,CLR,,0.00,WeatherDisplay:10.37,2013-04-30 12:41:00,
2013-04-30 07:46:00,63.8,56.1,29.64,South,174,6.0,15.0,76,0.00,CLR,,0.00,WeatherDisplay:10.37,2013-04-30 12:46:00,
2013-04-30 07:51:00,64.0,56.3,29.64,South,169,9.0,16.0,76,0.00,CLR,,0.00,WeatherDisplay:10.37,2013-04-30 12:51:00,
2013-04-30 07:56:00,64.3,56.6,29.64,SSE,158,8.0,19.0,76,0.00,CLR,,0.00,WeatherDisplay:10.37,2013-04-30 12:56:00,
2013-04-30 08:06:00,65.0,56.5,29.65,SSE,161,5.0,20.0,74,0.00,CLR,,0.00,WeatherDisplay:10.37,2013-04-30 13:06:00,
2013-04-30 08:16:00,65.5,57.0,29.64,SSE,168,5.0,24.0,74,0.00,CLR,,0.00,WeatherDisplay:10.37,2013-04-30 13:16:00,
2013-04-30 08:21:00,65.8,56.9,29.64,South,173,3.0,22.0,73,0.00,CLR,,0.00,WeatherDisplay:10.37,2013-04-30 13:21:00,
2013-04-30 08:31:00,66.3,57.0,29.64,SSE,164,9.0,20.0,72,0.00,CLR,,0.00,WeatherDisplay:10.37,2013-04-30 13:31:00,
2013-04-30 08:41:00,66.8,57.1,29.63,South,177,5.0,24.0,71,0.00,CLR,,0.00,WeatherDisplay:10.37,2013-04-30 13:41:00,
2013-04-30 08:46:00,67.1,57.0,29.63,SSE,164,7.0,19.0,70,0.00,CLR,,0.00,WeatherDisplay:10.37,2013-04-30 13:46:00,
2013-04-30 08:51:00,67.4,57.3,29.63,SSE,168,9.0,23.0,70,0.00,CLR,,0.00,WeatherDisplay:10.37,2013-04-30 13:51:00,
2013-04-30 08:56:00,67.8,57.3,29.63,South,173,9.0,20.0,69,0.00,CLR,,0.00,WeatherDisplay:10.37,2013-04-30 13:56:00,
2013-04-30 09:01:00,68.2,57.2,29.63,South,176,7.0,20.0,68,0.00,CLR,,0.00,WeatherDisplay:10.37,2013-04-30 14:01:00,
2013-04-30 09:06:00,68.6,57.2,29.64,South,185,10.0,21.0,67,0.00,CLR,,0.00,WeatherDisplay:10.37,2013-04-30 14:06:00,
2013-04-30 09:11:00,68.9,57.1,29.63,South,186,8.0,18.0,66,0.00,CLR,,0.00,WeatherDisplay:10.37,2013-04-30 14:11:00,
2013-04-30 09:16:00,69.3,57.5,29.63,South,183,9.0,21.0,66,0.00,CLR,,0.00,WeatherDisplay:10.37,2013-04-30 14:16:00,
2013-04-30 09:21:00,69.6,57.3,29.63,South,180,9.0,24.0,65,0.00,CLR,,0.00,WeatherDisplay:10.37,2013-04-30 14:21:00,
2013-04-30 09:31:00,70.1,56.9,29.63,South,172,13.0,23.0,63,0.00,CLR,,0.00,WeatherDisplay:10.37,2013-04-30 14:31:00,
2013-04-30 09:36:00,70.4,57.2,29.63,South,171,10.0,25.0,63,0.00,CLR,,0.00,WeatherDisplay:10.37,2013-04-30 14:36:00,
2013-04-30 09:41:00,70.4,56.8,29.63,South,177,17.0,25.0,62,0.00,CLR,,0.00,WeatherDisplay:10.37,2013-04-30 14:41:00,
2013-04-30 09:46:00,70.8,57.1,29.62,South,184,9.0,26.0,62,0.00,CLR,,0.00,WeatherDisplay:10.37,2013-04-30 14:46:00,
2013-04-30 09:51:00,71.1,56.5,29.62,South,191,17.0,28.0,60,0.00,CLR,,0.00,WeatherDisplay:10.37,2013-04-30 14:51:00,
2013-04-30 10:01:00,71.5,56.4,29.62,South,184,13.0,29.0,59,0.00,CLR,,0.00,WeatherDisplay:10.37,2013-04-30 15:01:00,
2013-04-30 10:06:00,72.0,56.9,29.62,South,187,8.0,25.0,59,0.00,CLR,,0.00,WeatherDisplay:10.37,2013-04-30 15:06:00,
2013-04-30 10:16:00,72.5,56.9,29.63,SSW,192,3.0,29.0,58,0.00,CLR,,0.00,WeatherDisplay:10.37,2013-04-30 15:16:00,
2013-04-30 10:21:00,72.5,56.9,29.63,South,183,13.0,25.0,58,0.00,CLR,,0.00,WeatherDisplay:10.37,2013-04-30 15:21:00,
2013-04-30 10:26:00,72.7,57.1,29.62,South,186,15.0,25.0,58,0.00,CLR,,0.00,WeatherDisplay:10.37,2013-04-30 15:26:00,
2013-04-30 10:31:00,73.0,56.9,29.62,South,177,14.0,35.0,57,0.00,CLR,,0.00,WeatherDisplay:10.37,2013-04-30 15:31:00,
2013-04-30 10:36:00,72.8,56.7,29.62,South,172,16.0,28.0,57,0.00,CLR,,0.00,WeatherDisplay:10.37,2013-04-30 15:36:00,
2013-04-30 10:41:00,73.2,57.1,29.62,South,173,8.0,25.0,57,0.00,CLR,,0.00,WeatherDisplay:10.37,2013-04-30 15:41:00,
2013-04-30 10:51:00,73.9,56.7,29.62,SSE,158,16.0,31.0,55,0.00,CLR,,0.00,WeatherDisplay:10.37,2013-04-30 15:51:00,
2013-04-30 11:01:00,75.3,58.0,29.62,South,175,8.0,24.0,55,0.00,CLR,,0.00,WeatherDisplay:10.37,2013-04-30 16:01:00,
2013-04-30 11:06:00,75.3,57.5,29.61,South,173,12.0,30.0,54,0.00,CLR,,0.00,WeatherDisplay:10.37,2013-04-30 16:06:00,
2013-04-30 11:11:00,75.6,57.3,29.61,South,184,14.0,30.0,53,0.00,CLR,,0.00,WeatherDisplay:10.37,2013-04-30 16:11:00,
2013-04-30 11:21:00,76.5,57.6,29.61,South,180,7.0,20.0,52,0.00,CLR,,0.00,WeatherDisplay:10.37,2013-04-30 16:21:00,
2013-04-30 11:26:00,76.2,57.8,29.61,South,182,14.0,31.0,53,0.00,CLR,,0.00,WeatherDisplay:10.37,2013-04-30 16:26:00,
2013-04-30 11:31:00,76.5,58.1,29.61,South,178,9.0,26.0,53,0.00,CLR,,0.00,WeatherDisplay:10.37,2013-04-30 16:31:00,
2013-04-30 11:41:00,77.1,57.6,29.62,South,169,14.0,31.0,51,0.00,CLR,,0.00,WeatherDisplay:10.37,2013-04-30 16:41:00,
2013-04-30 11:46:00,77.1,57.6,29.62,SSE,162,17.0,30.0,51,0.00,CLR,,0.00,WeatherDisplay:10.37,2013-04-30 16:46:00,
2013-04-30 11:51:00,77.2,57.7,29.61,SSE,163,13.0,28.0,51,0.00,CLR,,0.00,WeatherDisplay:10.37,2013-04-30 16:51:00,
2013-04-30 12:01:00,77.9,57.7,29.61,South,180,18.0,23.0,50,0.00,CLR,,0.00,WeatherDisplay:10.37,2013-04-30 17:01:00,
2013-04-30 12:06:00,78.1,58.5,29.61,South,189,6.0,26.0,51,0.00,CLR,,0.00,WeatherDisplay:10.37,2013-04-30 17:06:00,
2013-04-30 12:11:00,78.4,58.3,29.61,South,172,9.0,26.0,50,0.00,CLR,,0.00,WeatherDisplay:10.37,2013-04-30 17:11:00,
2013-04-30 12:16:00,78.7,58.5,29.61,South,172,5.0,22.0,50,0.00,CLR,,0.00,WeatherDisplay:10.37,2013-04-30 17:16:00,
2013-04-30 12:21:00,78.9,58.6,29.61,South,189,5.0,19.0,50,0.00,CLR,,0.00,WeatherDisplay:10.37,2013-04-30 17:21:00,
2013-04-30 12:26:00,78.9,58.1,29.61,SSW,193,10.0,26.0,49,0.00,CLR,,0.00,WeatherDisplay:10.37,2013-04-30 17:26:00,
2013-04-30 12:31:00,79.1,58.3,29.61,South,188,1.0,26.0,49,0.00,CLR,,0.00,WeatherDisplay:10.37,2013-04-30 17:31:00,
2013-04-30 12:36:00,79.1,58.3,29.61,South,171,8.0,30.0,49,0.00,CLR,,0.00,WeatherDisplay:10.37,2013-04-30 17:36:00,
2013-04-30 12:41:00,79.3,57.9,29.61,South,185,9.0,28.0,48,0.00,CLR,,0.00,WeatherDisplay:10.37,2013-04-30 17:41:00,
2013-04-30 12:46:00,79.3,57.9,29.61,South,187,10.0,34.0,48,0.00,CLR,,0.00,WeatherDisplay:10.37,2013-04-30 17:46:00,
2013-04-30 12:51:00,79.0,57.7,29.61,South,177,17.0,25.0,48,0.00,CLR,,0.00,WeatherDisplay:10.37,2013-04-30 17:51:00,
2013-04-30 12:56:00,79.3,58.5,29.61,South,182,6.0,35.0,49,0.00,CLR,,0.00,WeatherDisplay:10.37,2013-04-30 17:56:00,
2013-04-30 13:01:00,79.8,58.4,29.61,South,171,13.0,26.0,48,0.00,CLR,,0.00,WeatherDisplay:10.37,2013-04-30 18:01:00,
2013-04-30 13:06:00,79.4,58.0,29.61,South,177,13.0,26.0,48,0.00,CLR,,0.00,WeatherDisplay:10.37,2013-04-30 18:06:00,
2013-04-30 13:11:00,79.8,58.4,29.61,South,186,17.0,34.0,48,0.00,CLR,,0.00,WeatherDisplay:10.37,2013-04-30 18:11:00,
2013-04-30 13:21:00,80.3,59.4,29.61,South,180,7.0,16.0,49,0.00,CLR,,0.00,WeatherDisplay:10.37,2013-04-30 18:21:00,
2013-04-30 13:26:00,80.6,58.5,29.60,South,176,17.0,24.0,47,0.00,CLR,,0.00,WeatherDisplay:10.37,2013-04-30 18:26:00,
2013-04-30 13:36:00,80.6,58.5,29.60,South,178,9.0,37.0,47,0.00,CLR,,0.00,WeatherDisplay:10.37,2013-04-30 18:36:00,
2013-04-30 13:46:00,80.9,58.8,29.60,South,176,13.0,30.0,47,0.00,CLR,,0.00,WeatherDisplay:10.37,2013-04-30 18:46:00,
2013-04-30 13:51:00,80.7,59.2,29.60,South,186,9.0,25.0,48,0.00,CLR,,0.00,WeatherDisplay:10.37,2013-04-30 18:51:00,
2013-04-30 13:56:00,81.1,59.6,29.60,South,176,12.0,24.0,48,0.00,CLR,,0.00,WeatherDisplay:10.37,2013-04-30 18:56:00,
2013-04-30 14:07:00,80.9,58.8,29.60,South,186,16.0,26.0,47,0.00,CLR,,0.00,WeatherDisplay:10.37,2013-04-30 19:07:00,
2013-04-30 14:16:00,81.9,59.1,29.60,SSW,197,10.0,26.0,46,0.00,CLR,,0.00,WeatherDisplay:10.37,2013-04-30 19:16:00,
2013-04-30 14:21:00,81.7,58.3,29.60,South,174,10.0,26.0,45,0.00,CLR,,0.00,WeatherDisplay:10.37,2013-04-30 19:21:00,
2013-04-30 14:31:00,82.1,58.7,29.60,South,179,8.0,25.0,45,0.00,CLR,,0.00,WeatherDisplay:10.37,2013-04-30 19:31:00,
2013-04-30 14:36:00,82.4,57.7,29.60,South,176,13.0,20.0,43,0.00,CLR,,0.00,WeatherDisplay:10.37,2013-04-30 19:36:00,
2013-04-30 14:41:00,82.1,58.0,29.60,SSW,193,7.0,31.0,44,0.00,CLR,,0.00,WeatherDisplay:10.37,2013-04-30 19:41:00,
2013-04-30 14:51:00,81.6,56.9,29.60,SSE,165,15.0,26.0,43,0.00,CLR,,0.00,WeatherDisplay:10.37,2013-04-30 19:51:00,
2013-04-30 14:56:00,81.7,57.7,29.60,South,169,6.0,26.0,44,0.00,CLR,,0.00,WeatherDisplay:10.37,2013-04-30 19:56:00,
2013-04-30 15:01:00,82.1,56.1,29.60,South,188,10.0,26.0,41,0.00,CLR,,0.00,WeatherDisplay:10.37,2013-04-30 20:01:00,
2013-04-30 15:06:00,82.1,56.1,29.61,South,183,13.0,28.0,41,0.00,CLR,,0.00,WeatherDisplay:10.37,2013-04-30 20:06:00,
2013-04-30 15:16:00,82.4,57.0,29.60,South,180,16.0,22.0,42,0.00,CLR,,0.00,WeatherDisplay:10.37,2013-04-30 20:16:00,
2013-04-30 15:21:00,82.7,58.5,29.60,South,178,6.0,20.0,44,0.00,CLR,,0.00,WeatherDisplay:10.37,2013-04-30 20:21:00,
2013-04-30 15:26:00,82.7,56.6,29.61,South,173,15.0,24.0,41,0.00,CLR,,0.00,WeatherDisplay:10.37,2013-04-30 20:26:00,
2013-04-30 15:31:00,82.3,55.6,29.61,South,174,16.0,30.0,40,0.00,CLR,,0.00,WeatherDisplay:10.37,2013-04-30 20:31:00,
2013-04-30 15:41:00,82.7,55.2,29.61,South,178,16.0,24.0,39,0.00,CLR,,0.00,WeatherDisplay:10.37,2013-04-30 20:41:00,
2013-04-30 15:46:00,83.3,55.7,29.61,South,178,12.0,25.0,39,0.00,CLR,,0.00,WeatherDisplay:10.37,2013-04-30 20:46:00,
2013-04-30 15:51:00,82.9,55.4,29.61,South,178,9.0,23.0,39,0.00,CLR,,0.00,WeatherDisplay:10.37,2013-04-30 20:51:00,
2013-04-30 15:56:00,82.8,55.3,29.61,South,186,6.0,24.0,39,0.00,CLR,,0.00,WeatherDisplay:10.37,2013-04-30 20:56:00,
2013-04-30 16:01:00,83.0,56.2,29.60,South,187,5.0,21.0,40,0.00,CLR,,0.00,WeatherDisplay:10.37,2013-04-30 21:01:00,
2013-04-30 16:11:00,83.2,57.1,29.60,South,169,6.0,21.0,41,0.00,CLR,,0.00,WeatherDisplay:10.37,2013-04-30 21:11:00,
2013-04-30 16:16:00,83.5,57.3,29.60,SSE,165,7.0,15.0,41,0.00,CLR,,0.00,WeatherDisplay:10.37,2013-04-30 21:16:00,
2013-04-30 16:21:00,83.6,56.0,29.60,SSE,168,14.0,21.0,39,0.00,CLR,,0.00,WeatherDisplay:10.37,2013-04-30 21:21:00,
2013-04-30 16:31:00,83.1,56.3,29.60,SSE,150,5.0,21.0,40,0.00,CLR,,0.00,WeatherDisplay:10.37,2013-04-30 21:31:00,
2013-04-30 16:36:00,82.9,54.7,29.60,SSE,167,16.0,24.0,38,0.00,CLR,,0.00,WeatherDisplay:10.37,2013-04-30 21:36:00,
2013-04-30 16:41:00,82.5,55.7,29.60,South,172,17.0,29.0,40,0.00,CLR,,0.00,WeatherDisplay:10.37,2013-04-30 21:41:00,
2013-04-30 16:46:00,82.7,55.2,29.60,SSE,163,12.0,18.0,39,0.00,CLR,,0.00,WeatherDisplay:10.37,2013-04-30 21:46:00,
2013-04-30 16:51:00,82.9,55.4,29.60,South,175,9.0,19.0,39,0.00,CLR,,0.00,WeatherDisplay:10.37,2013-04-30 21:51:00,
2013-04-30 16:56:00,82.9,55.4,29.60,South,173,3.0,20.0,39,0.00,CLR,,0.00,WeatherDisplay:10.37,2013-04-30 21:56:00,
2013-04-30 17:01:00,82.9,56.1,29.60,SSE,159,5.0,19.0,40,0.00,CLR,,0.00,WeatherDisplay:10.37,2013-04-30 22:01:00,
2013-04-30 17:06:00,82.9,56.1,29.60,South,179,7.0,25.0,40,0.00,CLR,,0.00,WeatherDisplay:10.37,2013-04-30 22:06:00,
2013-04-30 17:11:00,82.7,55.9,29.59,South,177,7.0,19.0,40,0.00,CLR,,0.00,WeatherDisplay:10.37,2013-04-30 22:11:00,
2013-04-30 17:21:00,82.7,57.3,29.59,South,175,7.0,18.0,42,0.00,CLR,,0.00,WeatherDisplay:10.37,2013-04-30 22:21:00,
2013-04-30 17:26:00,82.7,55.9,29.59,South,179,10.0,22.0,40,0.00,CLR,,0.00,WeatherDisplay:10.37,2013-04-30 22:26:00,
2013-04-30 17:31:00,82.6,55.8,29.60,South,177,2.0,23.0,40,0.00,CLR,,0.00,WeatherDisplay:10.37,2013-04-30 22:31:00,
2013-04-30 17:36:00,82.5,55.7,29.60,SSE,167,8.0,25.0,40,0.00,CLR,,0.00,WeatherDisplay:10.37,2013-04-30 22:36:00,
2013-04-30 17:46:00,82.3,55.6,29.60,South,170,9.0,19.0,40,0.00,CLR,,0.00,WeatherDisplay:10.37,2013-04-30 22:46:00,
2013-04-30 17:51:00,82.3,55.6,29.60,South,170,9.0,18.0,40,0.00,CLR,,0.00,WeatherDisplay:10.37,2013-04-30 22:51:00,
2013-04-30 17:56:00,82.3,55.6,29.60,South,173,7.0,30.0,40,0.00,CLR,,0.00,WeatherDisplay:10.37,2013-04-30 22:56:00,
2013-04-30 18:06:00,81.9,54.5,29.60,SSE,150,8.0,20.0,39,0.00,CLR,,0.00,WeatherDisplay:10.37,2013-04-30 23:06:00,
2013-04-30 18:11:00,82.0,54.6,29.60,SSE,164,14.0,19.0,39,0.00,CLR,,0.00,WeatherDisplay:10.37,2013-04-30 23:11:00,
2013-04-30 18:21:00,81.9,55.2,29.60,South,172,7.0,22.0,40,0.00,CLR,,0.00,WeatherDisplay:10.37,2013-04-30 23:21:00,
2013-04-30 18:31:00,81.7,55.0,29.60,SSE,155,8.0,25.0,40,0.00,CLR,,0.00,WeatherDisplay:10.37,2013-04-30 23:31:00,
2013-04-30 18:41:00,81.3,56.0,29.60,SSE,161,7.0,20.0,42,0.00,CLR,,0.00,WeatherDisplay:10.37,2013-04-30 23:41:00,
2013-04-30 18:46:00,81.3,56.0,29.60,SSE,164,8.0,23.0,42,0.00,CLR,,0.00,WeatherDisplay:10.37,2013-04-30 23:46:00,
2013-04-30 18:56:00,80.9,55.7,29.61,South,169,9.0,23.0,42,0.00,CLR,,0.00,WeatherDisplay:10.37,2013-04-30 23:56:00,
2013-04-30 19:01:00,80.7,56.1,29.61,SSE,163,7.0,18.0,43,0.00,CLR,,0.00,WeatherDisplay:10.37,2013-05-01 00:01:00,
2013-04-30 19:06:00,80.6,56.7,29.61,SSE,162,6.0,18.0,44,0.00,CLR,,0.00,WeatherDisplay:10.37,2013-05-01 00:06:00,
2013-04-30 19:11:00,80.4,55.9,29.61,South,171,6.0,15.0,43,0.00,CLR,,0.00,WeatherDisplay:10.37,2013-05-01 00:11:00,
2013-04-30 19:16:00,80.2,55.7,29.61,South,172,10.0,19.0,43,0.00,CLR,,0.00,WeatherDisplay:10.37,2013-05-01 00:16:00,
2013-04-30 19:21:00,80.0,56.1,29.61,South,182,6.0,16.0,44,0.00,CLR,,0.00,WeatherDisplay:10.37,2013-05-01 00:21:00,
2013-04-30 19:26:00,79.8,55.9,29.61,SSE,167,9.0,21.0,44,0.00,CLR,,0.00,WeatherDisplay:10.37,2013-05-01 00:26:00,
2013-04-30 19:31:00,79.6,55.1,29.61,SSE,153,8.0,21.0,43,0.00,CLR,,0.00,WeatherDisplay:10.37,2013-05-01 00:31:00,
2013-04-30 19:41:00,79.3,54.9,29.61,SSE,155,3.0,16.0,43,0.00,CLR,,0.00,WeatherDisplay:10.37,2013-05-01 00:41:00,
2013-04-30 19:46:00,78.9,55.2,29.61,SSE,158,5.0,13.0,44,0.00,CLR,,0.00,WeatherDisplay:10.37,2013-05-01 00:46:00,
2013-04-30 19:51:00,78.7,55.0,29.62,SSE,160,9.0,20.0,44,0.00,CLR,,0.00,WeatherDisplay:10.37,2013-05-01 00:51:00,
2013-04-30 19:56:00,78.4,54.7,29.62,SSE,161,7.0,16.0,44,0.00,CLR,,0.00,WeatherDisplay:10.37,2013-05-01 00:56:00,
2013-04-30 20:01:00,78.1,54.4,29.62,SSE,152,2.0,15.0,44,0.00,CLR,,0.00,WeatherDisplay:10.37,2013-05-01 01:01:00,
2013-04-30 20:06:00,77.8,54.1,29.62,SSE,149,1.0,18.0,44,0.00,CLR,,0.00,WeatherDisplay:10.37,2013-05-01 01:06:00,
2013-04-30 20:11:00,77.4,53.8,29.62,SSE,157,2.0,9.0,44,0.00,CLR,,0.00,WeatherDisplay:10.37,2013-05-01 01:11:00,
2013-04-30 20:16:00,77.1,54.1,29.62,SE,145,1.0,9.0,45,0.00,CLR,,0.00,WeatherDisplay:10.37,2013-05-01 01:16:00,
2013-04-30 20:21:00,76.7,54.4,29.62,SE,143,0.0,8.0,46,0.00,CLR,,0.00,WeatherDisplay:10.37,2013-05-01 01:21:00,
2013-04-30 20:31:00,75.5,55.0,29.63,SSE,149,2.0,9.0,49,0.00,CLR,,0.00,WeatherDisplay:10.37,2013-05-01 01:31:00,
2013-04-30 20:41:00,74.4,55.7,29.63,SE,143,0.0,2.0,52,0.00,CLR,,0.00,WeatherDisplay:10.37,2013-05-01 01:41:00,
2013-04-30 20:46:00,74.0,55.8,29.63,SE,142,0.0,6.0,53,0.00,CLR,,0.00,WeatherDisplay:10.37,2013-05-01 01:46:00,
2013-04-30 20:51:00,73.5,55.8,29.63,SE,143,2.0,6.0,54,0.00,CLR,,0.00,WeatherDisplay:10.37,2013-05-01 01:51:00,
2013-04-30 21:06:00,72.5,55.4,29.64,SE,141,0.0,8.0,55,0.00,CLR,,0.00,WeatherDisplay:10.37,2013-05-01 02:06:00,
2013-04-30 21:16:00,71.8,55.3,29.64,SSE,148,1.0,13.0,56,0.00,CLR,,0.00,WeatherDisplay:10.37,2013-05-01 02:16:00,
2013-04-30 21:21:00,71.6,55.1,29.65,SSE,150,0.0,6.0,56,0.00,CLR,,0.00,WeatherDisplay:10.37,2013-05-01 02:21:00,
2013-04-30 21:26:00,71.5,55.0,29.65,SSE,148,3.0,12.0,56,0.00,CLR,,0.00,WeatherDisplay:10.37,2013-05-01 02:26:00,
2013-04-30 21:31:00,71.3,54.8,29.66,SE,144,2.0,9.0,56,0.00,CLR,,0.00,WeatherDisplay:10.37,2013-05-01 02:31:00,
2013-04-30 21:41:00,71.3,54.3,29.66,SE,139,2.0,13.0,55,0.00,CLR,,0.00,WeatherDisplay:10.37,2013-05-01 02:41:00,
2013-04-30 21:46:00,71.3,54.3,29.67,SE,142,3.0,15.0,55,0.00,CLR,,0.00,WeatherDisplay:10.37,2013-05-01 02:46:00,
2013-04-30 21:51:00,71.5,54.0,29.67,SE,146,2.0,9.0,54,0.00,CLR,,0.00,WeatherDisplay:10.37,2013-05-01 02:51:00,
2013-04-30 21:56:00,71.5,54.0,29.67,SSE,150,1.0,12.0,54,0.00,CLR,,0.00,WeatherDisplay:10.37,2013-05-01 02:56:00,
2013-04-30 22:01:00,71.6,53.6,29.67,SSE,151,5.0,12.0,53,0.00,CLR,,0.00,WeatherDisplay:10.37,2013-05-01 03:01:00,
2013-04-30 22:06:00,71.6,53.6,29.67,SSE,148,2.0,12.0,53,0.00,CLR,,0.00,WeatherDisplay:10.37,2013-05-01 03:06:00,
2013-04-30 22:11:00,71.6,53.6,29.67,SE,146,5.0,9.0,53,0.00,CLR,,0.00,WeatherDisplay:10.37,2013-05-01 03:11:00,
2013-04-30 22:21:00,71.6,53.6,29.68,SSE,147,5.0,13.0,53,0.00,CLR,,0.00,WeatherDisplay:10.37,2013-05-01 03:21:00,
2013-04-30 22:26:00,71.5,53.5,29.68,SE,142,1.0,13.0,53,0.00,CLR,,0.00,WeatherDisplay:10.37,2013-05-01 03:26:00,
2013-04-30 22:31:00,71.5,53.5,29.69,SSE,148,2.0,9.0,53,0.00,CLR,,0.00,WeatherDisplay:10.37,2013-05-01 03:31:00,
2013-04-30 22:36:00,71.3,53.3,29.69,SSE,152,0.0,5.0,53,0.00,CLR,,0.00,WeatherDisplay:10.37,2013-05-01 03:36:00,
2013-04-30 22:41:00,71.3,53.3,29.69,SE,144,0.0,9.0,53,0.00,CLR,,0.00,WeatherDisplay:10.37,2013-05-01 03:41:00,
2013-04-30 22:46:00,71.1,53.1,29.69,SE,142,1.0,9.0,53,0.00,CLR,,0.00,WeatherDisplay:10.37,2013-05-01 03:46:00,
2013-04-30 22:51:00,71.3,53.3,29.69,SSE,148,7.0,18.0,53,0.00,CLR,,0.00,WeatherDisplay:10.37,2013-05-01 03:51:00,
2013-04-30 22:56:00,71.5,52.9,29.69,SSE,157,5.0,15.0,52,0.00,CLR,,0.00,WeatherDisplay:10.37,2013-05-01 03:56:00,
2013-04-30 23:01:00,71.6,53.0,29.69,SSE,168,2.0,15.0,52,0.00,CLR,,0.00,WeatherDisplay:10.37,2013-05-01 04:01:00,
2013-04-30 23:06:00,71.5,52.9,29.69,SSE,154,2.0,15.0,52,0.00,CLR,,0.00,WeatherDisplay:10.37,2013-05-01 04:06:00,
2013-04-30 23:11:00,71.5,52.9,29.69,SE,141,1.0,15.0,52,0.00,CLR,,0.00,WeatherDisplay:10.37,2013-05-01 04:11:00,
2013-04-30 23:16:00,71.3,52.8,29.69,SSE,150,2.0,13.0,52,0.00,CLR,,0.00,WeatherDisplay:10.37,2013-05-01 04:16:00,
2013-04-30 23:21:00,71.3,52.8,29.69,SE,145,1.0,10.0,52,0.00,CLR,,0.00,WeatherDisplay:10.37,2013-05-01 04:21:00,
2013-04-30 23:26:00,71.0,53.0,29.69,SE,138,0.0,4.0,53,0.00,CLR,,0.00,WeatherDisplay:10.37,2013-05-01 04:26:00,
2013-04-30 23:31:00,70.4,53.0,29.69,SE,143,2.0,8.0,54,0.00,CLR,,0.00,WeatherDisplay:10.37,2013-05-01 04:31:00,
2013-04-30 23:36:00,70.1,52.7,29.69,SE,144,0.0,6.0,54,0.00,CLR,,0.00,WeatherDisplay:10.37,2013-05-01 04:36:00,
2013-04-30 23:41:00,69.8,52.9,29.69,SE,140,0.0,6.0,55,0.00,CLR,,0.00,WeatherDisplay:10.37,2013-05-01 04:41:00,
2013-04-30 23:46:00,69.3,52.9,29.69,SE,146,3.0,9.0,56,0.00,CLR,,0.00,WeatherDisplay:10.37,2013-05-01 04:46:00,
2013-04-30 23:51:00,68.9,53.0,29.69,SSE,148,1.0,12.0,57,0.00,CLR,,0.00,WeatherDisplay:10.37,2013-05-01 04:51:00,